Tracking 31011 objects as of 11-Jul-2025
HD Live streaming from Space Station
objects crossing your sky now

CZ-6A DEB

Track CZ-6A DEB now!
10-day predictions


NORAD ID: 54560
Int'l Code: 2022-151LL
Perigee: 830.9 km
Apogee: 915.6 km
Inclination: 98.8 °
Period: 102.3 minutes
Semi major axis: 7244 km
RCS: Unknown
Launch date: November 11, 2022
Source: People's Republic of China (PRC)
Launch site: Taiyaun Space Center, China (TSC)

Note: This is SATELLITE DEBRIS
Your satellite tracking list
Your tracking list is empty




NASA's NSSDC Master Catalog

Two Line Element Set (TLE):
1 54560U 22151LL  25191.58927717  .00000060  00000-0  60100-4 0  9992
2 54560  98.8273 188.6472 0058431 246.9193 112.5810 14.08035634136372
Source of the keplerian elements: AFSPC